{"data":{"norad_id":61982,"intl_designator":"2024-210Z","name":"STARLINK-32560","alt_names":[],"object_type":"PAYLOAD","status":"ACTIVE","operator":null,"country":"US","launch_date":"2024-11-14","launch_site_code":"AFETR","launch_vehicle":null,"mission":null,"orbit_class":"UNKNOWN","rcs_meters":null,"size_class":null,"mass_kg":null,"dimensions":null,"purposes":["comms"],"wikipedia_slug":null,"has_3d_model":false,"image_url":null,"decayed_at":null,"tle_current":{"epoch":"2026-05-25T04:43:38.174304Z","epoch_age_seconds":54712,"freshness":"FRESH","line1":"1 61982U 24210Z   26145.19696961  .00018218  00000+0  66967-3 0  9996","line2":"2 61982  42.9950 107.4970 0000574 290.1724  69.9066 15.27590793 86587","mean_motion":15.27590793,"eccentricity":5.74e-5,"inclination_deg":42.995,"raan_deg":107.497,"arg_perigee_deg":290.1724,"mean_anomaly_deg":69.9066,"bstar":0.00066967,"rev_number":8658,"period_min":94.266082683833,"perigee_km":482.62294787831,"apogee_km":483.41060833204,"semimajor_km":6861.1537781052,"source":"CELESTRAK","updated_at":"2026-05-25T13:38:19.517901Z"}}}